TVF39XV LFPO-LFMT

Flight info

Callsign TVF39XV
Flight time 0h 58m
Altitude 29000
Route ERIXU DCT ETAMO DCT ADEKA DCT MOKDI DCT MEN
Aircraft B738/M-SDFGHIJRWXY/LB1

Departure

Time 2026-05-07 06:37
Airport Paris-Orly Airport (LFPO)

Arrival

Time 2026-05-07 07:35
Airport Montpellier-Méditerranée Airport (LFMT)
Time Latitude Longitude Altitude Speed Heading
2026-05-07 05:50 48.72583 2.35880 286 ft 0 kts 26°
2026-05-07 06:03 48.72582 2.35880 286 ft 0 kts 26°
2026-05-07 06:27 48.72577 2.35875 286 ft 2 kts 26°
2026-05-07 06:27 48.72563 2.35866 286 ft 2 kts 26°
2026-05-07 06:27 48.72550 2.35855 286 ft 2 kts 26°
2026-05-07 06:28 48.72539 2.35847 286 ft 0 kts 26°
2026-05-07 06:28 48.72527 2.35840 286 ft 2 kts 10°
2026-05-07 06:28 48.72512 2.35839 286 ft 2 kts 352°
2026-05-07 06:28 48.72498 2.35845 286 ft 2 kts 333°
2026-05-07 06:29 48.72486 2.35857 286 ft 2 kts 315°
2026-05-07 06:29 48.72477 2.35875 286 ft 2 kts 296°
2026-05-07 06:29 48.72472 2.35894 286 ft 0 kts 279°
2026-05-07 06:29 48.72471 2.35904 286 ft 1 kts 276°
2026-05-07 06:30 48.72471 2.35905 286 ft 0 kts 276°
2026-05-07 06:32 48.72473 2.35878 286 ft 8 kts 277°
2026-05-07 06:32 48.72476 2.35761 286 ft 13 kts 259°
2026-05-07 06:32 48.72469 2.35618 286 ft 13 kts 292°
2026-05-07 06:33 48.72543 2.35561 286 ft 12 kts 345°
2026-05-07 06:33 48.72627 2.35527 287 ft 12 kts 344°
2026-05-07 06:33 48.72659 2.35514 287 ft 12 kts 345°
2026-05-07 06:34 48.72844 2.35433 288 ft 12 kts 342°
2026-05-07 06:34 48.72922 2.35372 288 ft 12 kts 334°
2026-05-07 06:34 48.73007 2.35387 288 ft 12 kts 18°
2026-05-07 06:35 48.73092 2.35428 288 ft 12 kts 18°
2026-05-07 06:35 48.73176 2.35467 289 ft 12 kts 11°
2026-05-07 06:35 48.73254 2.35435 289 ft 12 kts 314°
2026-05-07 06:35 48.73289 2.35350 289 ft 8 kts 261°
2026-05-07 06:36 48.73284 2.35330 289 ft 0 kts 244°
2026-05-07 06:36 48.73254 2.35243 289 ft 39 kts 242°
2026-05-07 06:36 48.73003 2.34536 287 ft 110 kts 241°
2026-05-07 06:36 48.72549 2.33256 305 ft 163 kts 241°
2026-05-07 06:37 48.72027 2.31769 1035 ft 158 kts 245°
2026-05-07 06:37 48.71505 2.30289 1677 ft 165 kts 240°
2026-05-07 06:37 48.70880 2.28853 2364 ft 166 kts 237°
2026-05-07 06:37 48.70247 2.27401 3020 ft 169 kts 238°
2026-05-07 06:38 48.69622 2.25914 3605 ft 176 kts 239°
2026-05-07 06:38 48.68919 2.24252 3965 ft 201 kts 238°
2026-05-07 06:38 48.68146 2.22424 4577 ft 213 kts 238°
2026-05-07 06:38 48.67323 2.20484 5260 ft 223 kts 238°
2026-05-07 06:39 48.66465 2.18497 5926 ft 233 kts 237°
2026-05-07 06:39 48.65340 2.16674 6454 ft 250 kts 212°
2026-05-07 06:39 48.63647 2.15889 7119 ft 261 kts 181°
2026-05-07 06:39 48.61815 2.16070 7745 ft 272 kts 174°
2026-05-07 06:40 48.59912 2.16380 8397 ft 283 kts 174°
2026-05-07 06:40 48.57969 2.16686 9239 ft 285 kts 175°
2026-05-07 06:40 48.55980 2.16985 9977 ft 291 kts 175°
2026-05-07 06:40 48.53908 2.17287 10493 ft 304 kts 175°
2026-05-07 06:41 48.51761 2.17598 11000 ft 319 kts 175°
2026-05-07 06:41 48.49526 2.17923 11619 ft 329 kts 175°
2026-05-07 06:41 48.47320 2.18247 12834 ft 319 kts 175°
2026-05-07 06:41 48.45161 2.18566 13989 ft 311 kts 175°
2026-05-07 06:42 48.43028 2.18883 14956 ft 310 kts 175°
2026-05-07 06:42 48.40844 2.19203 15664 ft 319 kts 175°
2026-05-07 06:42 48.38606 2.19525 16130 ft 334 kts 175°
2026-05-07 06:42 48.36252 2.19863 16689 ft 346 kts 175°
2026-05-07 06:43 48.33854 2.20212 17422 ft 351 kts 175°
2026-05-07 06:43 48.31390 2.20573 18184 ft 356 kts 175°
2026-05-07 06:43 48.28921 2.20940 18942 ft 359 kts 175°
2026-05-07 06:43 48.26433 2.21417 19679 ft 364 kts 172°
2026-05-07 06:44 48.23938 2.22013 20394 ft 368 kts 171°
2026-05-07 06:44 48.21412 2.22661 21103 ft 371 kts 171°
2026-05-07 06:44 48.18883 2.23316 21762 ft 375 kts 171°
2026-05-07 06:44 48.16288 2.23981 22421 ft 379 kts 172°
2026-05-07 06:45 48.13696 2.24696 23053 ft 384 kts 169°
2026-05-07 06:45 48.11083 2.25693 23678 ft 388 kts 165°
2026-05-07 06:45 48.08479 2.26861 24322 ft 392 kts 164°
2026-05-07 06:45 48.05907 2.28071 24923 ft 396 kts 163°
2026-05-07 06:46 48.03274 2.29314 25538 ft 399 kts 163°
2026-05-07 06:46 48.00625 2.30547 26191 ft 401 kts 164°
2026-05-07 06:46 47.97973 2.31760 27062 ft 396 kts 164°
2026-05-07 06:46 47.95365 2.32936 27685 ft 397 kts 164°
2026-05-07 06:47 47.92673 2.34137 28114 ft 401 kts 164°
2026-05-07 06:47 47.90025 2.35308 28376 ft 397 kts 165°
2026-05-07 06:47 47.87393 2.36468 28652 ft 395 kts 164°
2026-05-07 06:47 47.84755 2.37626 28922 ft 395 kts 165°
2026-05-07 06:48 47.82104 2.38772 29027 ft 400 kts 166°
2026-05-07 06:48 47.79389 2.39706 29022 ft 395 kts 170°
2026-05-07 06:48 47.74006 2.41014 29019 ft 395 kts 173°
2026-05-07 06:49 47.68536 2.42241 29022 ft 396 kts 172°
2026-05-07 06:49 47.63143 2.43520 29020 ft 395 kts 172°
2026-05-07 06:50 47.57696 2.44865 29020 ft 395 kts 172°
2026-05-07 06:50 47.52289 2.46224 29018 ft 395 kts 171°
2026-05-07 06:51 47.46876 2.47592 29018 ft 394 kts 171°
2026-05-07 06:51 47.41459 2.48962 29016 ft 395 kts 171°
2026-05-07 06:52 47.36045 2.50328 29016 ft 396 kts 171°
2026-05-07 06:52 47.30597 2.51700 29016 ft 396 kts 171°
2026-05-07 06:53 47.25165 2.53065 29015 ft 396 kts 171°
2026-05-07 06:53 47.19731 2.54428 29021 ft 395 kts 171°
2026-05-07 06:54 47.14291 2.55791 29026 ft 394 kts 171°
2026-05-07 06:54 47.08883 2.57141 29029 ft 395 kts 171°
2026-05-07 06:55 47.03437 2.58498 29031 ft 396 kts 172°
2026-05-07 06:55 46.98015 2.59845 29027 ft 396 kts 172°
2026-05-07 06:56 46.92594 2.61191 29022 ft 397 kts 172°
2026-05-07 06:56 46.87146 2.62542 29018 ft 396 kts 172°
2026-05-07 06:57 46.81715 2.63885 29016 ft 396 kts 171°
2026-05-07 06:57 46.76266 2.65229 29014 ft 395 kts 172°
2026-05-07 06:58 46.70844 2.66564 29012 ft 395 kts 172°
2026-05-07 06:58 46.65411 2.67899 29002 ft 397 kts 172°
2026-05-07 06:59 46.59952 2.69237 29007 ft 397 kts 172°
2026-05-07 06:59 46.54499 2.70571 29005 ft 397 kts 172°
2026-05-07 07:00 46.49099 2.71890 28999 ft 395 kts 172°
2026-05-07 07:00 46.43670 2.73213 29000 ft 395 kts 172°
2026-05-07 07:01 46.38217 2.74538 28994 ft 395 kts 172°
2026-05-07 07:01 46.32782 2.75857 28990 ft 396 kts 173°
2026-05-07 07:02 46.27334 2.77178 28988 ft 396 kts 173°
2026-05-07 07:02 46.21883 2.78496 28982 ft 396 kts 173°
2026-05-07 07:03 46.16442 2.79807 28979 ft 397 kts 173°
2026-05-07 07:03 46.10983 2.81120 28977 ft 396 kts 173°
2026-05-07 07:04 46.05538 2.82424 28973 ft 397 kts 173°
2026-05-07 07:04 46.00091 2.83721 28972 ft 396 kts 173°
2026-05-07 07:05 45.94657 2.85133 28969 ft 397 kts 168°
2026-05-07 07:05 45.89385 2.87527 28968 ft 399 kts 162°
2026-05-07 07:06 45.84208 2.90230 28973 ft 399 kts 162°
2026-05-07 07:06 45.78953 2.92915 28976 ft 399 kts 162°
2026-05-07 07:07 45.73706 2.95505 28972 ft 399 kts 163°
2026-05-07 07:07 45.68470 2.98044 28983 ft 398 kts 163°
2026-05-07 07:08 45.63228 3.00569 28983 ft 398 kts 163°
2026-05-07 07:08 45.57959 3.03098 28991 ft 398 kts 163°
2026-05-07 07:09 45.52708 3.05612 28991 ft 398 kts 163°
2026-05-07 07:09 45.47481 3.08109 28997 ft 398 kts 163°
2026-05-07 07:10 45.42223 3.10616 28994 ft 399 kts 164°
2026-05-07 07:10 45.36980 3.13111 28994 ft 398 kts 164°
2026-05-07 07:11 45.31688 3.15625 28990 ft 398 kts 164°
2026-05-07 07:11 45.26452 3.18107 28986 ft 398 kts 164°
2026-05-07 07:12 45.21222 3.20581 28982 ft 397 kts 164°
2026-05-07 07:12 45.15962 3.23065 28980 ft 398 kts 164°
2026-05-07 07:13 45.10706 3.25541 28983 ft 399 kts 164°
2026-05-07 07:13 45.05450 3.28014 28979 ft 398 kts 164°
2026-05-07 07:14 45.00174 3.30490 28974 ft 398 kts 164°
2026-05-07 07:14 44.94941 3.32944 28975 ft 397 kts 164°
2026-05-07 07:15 44.89696 3.35396 28669 ft 398 kts 164°
2026-05-07 07:15 44.87031 3.36640 28390 ft 396 kts 164°
2026-05-07 07:15 44.84525 3.37811 28128 ft 393 kts 164°
2026-05-07 07:16 44.81911 3.39030 27860 ft 392 kts 164°
2026-05-07 07:16 44.79401 3.40199 27603 ft 391 kts 164°
2026-05-07 07:16 44.76830 3.41397 27306 ft 385 kts 164°
2026-05-07 07:16 44.74309 3.42571 26898 ft 380 kts 164°
2026-05-07 07:17 44.71820 3.43728 26453 ft 376 kts 164°
2026-05-07 07:17 44.69362 3.44868 26001 ft 376 kts 164°
2026-05-07 07:17 44.66852 3.46028 25536 ft 380 kts 164°
2026-05-07 07:17 44.64363 3.47179 25064 ft 377 kts 164°
2026-05-07 07:18 44.61876 3.48330 24602 ft 373 kts 164°
2026-05-07 07:18 44.59436 3.49459 24143 ft 369 kts 164°
2026-05-07 07:18 44.57008 3.50582 23681 ft 366 kts 164°
2026-05-07 07:18 44.54578 3.51704 23221 ft 362 kts 164°
2026-05-07 07:19 44.52225 3.52789 22779 ft 358 kts 164°
2026-05-07 07:19 44.49859 3.53879 22328 ft 354 kts 164°
2026-05-07 07:19 44.47521 3.54955 21884 ft 351 kts 164°
2026-05-07 07:19 44.45239 3.56004 21447 ft 348 kts 164°
2026-05-07 07:20 44.42931 3.57064 21003 ft 344 kts 164°
2026-05-07 07:20 44.40670 3.58102 20570 ft 342 kts 164°
2026-05-07 07:20 44.38387 3.59148 20127 ft 347 kts 164°
2026-05-07 07:20 44.36115 3.60187 19679 ft 346 kts 163°
2026-05-07 07:21 44.33819 3.61239 19230 ft 342 kts 163°
2026-05-07 07:21 44.31574 3.62268 18796 ft 339 kts 163°
2026-05-07 07:21 44.29347 3.63288 18366 ft 336 kts 163°
2026-05-07 07:21 44.27142 3.64296 17933 ft 333 kts 163°
2026-05-07 07:22 44.24951 3.65297 17499 ft 330 kts 164°
2026-05-07 07:22 44.22745 3.66304 17060 ft 328 kts 164°
2026-05-07 07:22 44.20581 3.67290 16634 ft 325 kts 164°
2026-05-07 07:22 44.18433 3.68268 16207 ft 323 kts 164°
2026-05-07 07:23 44.16312 3.69234 15787 ft 320 kts 164°
2026-05-07 07:23 44.14229 3.70181 15369 ft 318 kts 164°
2026-05-07 07:23 44.12138 3.71131 14949 ft 315 kts 163°
2026-05-07 07:23 44.10048 3.72080 14537 ft 313 kts 163°
2026-05-07 07:24 44.07987 3.73015 14122 ft 311 kts 163°
2026-05-07 07:24 44.05923 3.73950 13711 ft 309 kts 163°
2026-05-07 07:24 44.03894 3.74869 13305 ft 307 kts 163°
2026-05-07 07:24 44.01882 3.75780 12894 ft 305 kts 163°
2026-05-07 07:25 43.97885 3.77588 12089 ft 301 kts 163°
2026-05-07 07:25 43.95913 3.78479 11690 ft 299 kts 163°
2026-05-07 07:25 43.93956 3.79363 11292 ft 297 kts 163°
2026-05-07 07:26 43.91993 3.80248 10897 ft 295 kts 163°
2026-05-07 07:26 43.90041 3.81128 10501 ft 293 kts 163°
2026-05-07 07:26 43.88101 3.82002 10125 ft 291 kts 163°
2026-05-07 07:26 43.86212 3.82854 9933 ft 282 kts 163°
2026-05-07 07:27 43.84383 3.83679 9688 ft 276 kts 163°
2026-05-07 07:27 43.82550 3.84502 9281 ft 276 kts 163°
2026-05-07 07:27 43.80707 3.85319 8850 ft 277 kts 163°
2026-05-07 07:27 43.78880 3.86096 8273 ft 276 kts 164°
2026-05-07 07:28 43.77064 3.86862 7725 ft 273 kts 163°
2026-05-07 07:28 43.75267 3.87692 7126 ft 271 kts 162°
2026-05-07 07:28 43.73488 3.88531 6548 ft 269 kts 161°
2026-05-07 07:28 43.71766 3.89334 6249 ft 256 kts 162°
2026-05-07 07:29 43.70083 3.90097 5765 ft 251 kts 162°
2026-05-07 07:29 43.68428 3.90837 5127 ft 254 kts 162°
2026-05-07 07:29 43.66740 3.91590 4535 ft 253 kts 162°
2026-05-07 07:29 43.65100 3.92329 4012 ft 246 kts 160°
2026-05-07 07:30 43.63581 3.93335 3374 ft 244 kts 142°
2026-05-07 07:30 43.62496 3.95043 3158 ft 224 kts 120°
2026-05-07 07:30 43.61753 3.96845 2788 ft 209 kts 116°
2026-05-07 07:30 43.61068 3.98517 2526 ft 194 kts 118°
2026-05-07 07:31 43.60394 4.00036 2300 ft 178 kts 120°
2026-05-07 07:31 43.59758 4.01417 2129 ft 163 kts 120°
2026-05-07 07:31 43.59158 4.02716 2042 ft 160 kts 120°
2026-05-07 07:31 43.58575 4.03983 1957 ft 155 kts 120°
2026-05-07 07:32 43.57964 4.05185 1711 ft 153 kts 131°
2026-05-07 07:32 43.57024 4.05786 1456 ft 153 kts 181°
2026-05-07 07:32 43.56029 4.05358 1219 ft 151 kts 213°
2026-05-07 07:32 43.55220 4.04450 999 ft 148 kts 232°
2026-05-07 07:33 43.54918 4.03166 889 ft 142 kts 279°
2026-05-07 07:33 43.55327 4.01935 654 ft 140 kts 310°
2026-05-07 07:33 43.55928 4.00889 515 ft 141 kts 306°
2026-05-07 07:33 43.56470 3.99777 333 ft 139 kts 308°
2026-05-07 07:34 43.57039 3.98684 129 ft 139 kts 307°
2026-05-07 07:34 43.57598 3.97589 14 ft 117 kts 304°
2026-05-07 07:34 43.57922 3.96945 15 ft 62 kts 304°
2026-05-07 07:34 43.58158 3.96476 17 ft 52 kts 305°
2026-05-07 07:35 43.58292 3.96202 19 ft 23 kts 298°
2026-05-07 07:35 43.58289 3.96027 20 ft 17 kts 246°
2026-05-07 07:35 43.58237 3.95882 20 ft 16 kts 244°
2026-05-07 07:35 43.58177 3.95769 20 ft 13 kts 201°
2026-05-07 07:36 43.58106 3.95818 20 ft 10 kts 130°
2026-05-07 07:36 43.58063 3.95900 19 ft 10 kts 118°
2026-05-07 07:36 43.58036 3.95971 19 ft 6 kts 149°
2026-05-07 07:36 43.57996 3.95959 18 ft 4 kts 207°
2026-05-07 07:37 43.57973 3.95944 18 ft 0 kts 206°